COSMOS 1375 DEB

Satellite information

Favourite Embed

Satellite Type and Status

DEBRISIN ORBIT

Key statistics

Satellite COSMOS 1375 DEB at a glance.

Uptime

15735

Days in orbit

Revolutions

≈ 13.8

Per day

Orbit

LEO

Low Earth Orbit

Inclination

65.8

Latest

Satellite identification and parameters

Extended collection of information and parameters for COSMOS 1375 DEB.

Object identification

Identified? True

Debris? True

Object name: COSMOS 1375 DEB

International designator: 1982-055S

Object number (NORAD): 16378

Object ID (CCSDS): 16378

Country: COMMONWEALTH OF INDEPENDENT STATES (CIS)

Current information (Y/N): Y

RCS size: SMALL

Orbital parameters

Period: 104.23 minutes

Inclination: 65.8315 deg

SMA: 7336.482 km

Apoapsis: 986.146 km

Periapsis: 930.547 km

RAAN: 242.9776 deg

Eccentricy: 0.0037892

Argument of periapsis: 323.5938 deg

Mean anomaly: 114.5385 deg

Mean motion: 13.81563954 rev/day

Mean motion (dot): 0.00000021 rev/day2

B* drag term: 0.000096377 1/REarth

Two-line elements (TLE)

Creation date: July 3, 2025, 10:36 p.m.

Reference frame: TEME

Reference center: EARTH

Epoch: July 3, 2025, 3:13 p.m. UTC

TLE line 0: 0 COSMOS 1375 DEB

TLE line 1: 1 16378U 82055S 25184.63404117 .00000021 00000-0 96377-4 0 9990

TLE line 2: 2 16378 65.8315 242.9776 0037892 323.5938 114.5385 13.81563954 275

Live tracking on map

Real-time ground track for satellite COSMOS 1375 DEB.

In-orbit conjunctions

A list of the most updated potential collisions computed for object COSMOS 1375 DEB.

Target Orbit TCA Probability of collision Miss distance Type
THORAD AGENA D DEB SSO 2025-06-03 12:58:30 0.001060712 45.0 (m) DEBRIS

Associated space launch

ASAT target satellite

COSMOS 1375 DEB was lifted into orbit during the mission ‘Kosmos-3M | DS-P1-M 16’, on board a Kosmos-3M space rocket.

The launch took place on June 6, 1982, 5:10 p.m. from 132/2.

For more information about the launch, click the button.

Launch to space Kosmos-3M | DS-P1-M 16
Kosmos-3M | DS-P1-M 16

Agency: N/A

Status: Launch Successful

Launch date: June 6, 1982, 5:10 p.m. UTC

Rocket: Kosmos-3M

Launch pad: 132/2

Location: Plesetsk Cosmodrome, Russian Federation

...

Latest news about this satellite

There are no fresh news available about this satellite. Check back as we update our databases every day.


Newsletter sign-up

Weekly statistics, charts and insights to help you stay on top of the space industry.